Вернуться в каталог

STARLINK-31285

АктивенСвязьVLEO
NORAD 59244·PAYLOAD·🇺🇸 United States

Запущен Mar 16, 2024 с Cape Canaveral Space Force Station

Loading…

Ближайшие Пролёты (ближайшие 24 часа)

TLE

СвежийSource: CelesTrak SupGP

Эпоха: Sep 14, 2026, 20:53 UTC

1 59244C 24049P   26257.87062500 -.00024521  00000+0 -88823-3 0  2577
2 59244  42.9996 154.8568 0001266 262.1859  44.6118 15.27588274    14

Отслеживайте STARLINK-31285 в реальном времени с AllMySat

Download on the App Store